Weather in Ulanhot

China     46°04′13″N   122°03′46″E
temp.,
°C
wind,
m/s
gust,
m/s
humid.,
%
clouds,
%
prec.,
mm/h
press.,
hPa
HPBL,
m
11 april, sun
sun1123:00+11n2342100 0.0 101745
02:00+9n4835100 0.0 1019222
05:00+8ne51034100 0.0 1020458
08:00+7ene3552100 0.4 1021241
11:00+10nw1235100 0.6 1022851
14:00+7wnw1273100 3.8 1021222
17:00+11w125999 0.3 1017452
20:00+8sse3673100 0.3 1016129
12 april, mon
mon1223:00+8sse31170100 0.2 1014355
02:00+6sse0177100 0.3 101010
05:00+8ssw51471100 0.1 1007448
08:00−2nne111588100 0.3 1012381
11:00−1n101571100 0.4 1016817
14:00+3nne111247100 0.4 10171415
17:00+1nne810477 0.0 10191148
20:00−1n4562100 0.1 1023684
13 april, tue
tue1323:00−3wsw11925 0.3 102210
02:00−3w37650 0.3 1021114
05:00−5wnw49450 0.0 1021144
08:000nw611270 0.0 10211572
11:00+3nnw58215 0.0 10192297
14:00+6nnw4818100 0.0 10163133
17:00+6nne5722100 0.0 10142558
20:00+2nne692970 0.0 1017572
14 april, wed
wed1423:000w11355 0.0 101710
02:00−1wsw49390 0.0 1016176
05:00−2w384445 0.0 1015129
08:00+4wnw58275 0.0 1015542
11:00+8wnw3519100 0.0 10131459
14:00+13sw6917100 0.0 10093140
17:00+14sw691770 0.0 10062875
20:00+10s6132371 0.0 1006374
15 april, thu
thu1523:00+8s6172278 0.0 1004537
02:00+8sse71622100 0.0 999715
05:00+7s91828100 0.0 993730
08:00+8wsw1216430 0.0 9911154
11:00+8wsw161938100 0.0 9892038
14:00+10w172134100 0.0 9902287
17:00+7wnw142233100 0.0 9962314
20:00+5w121945100 0.0 10011725